[[[{"header":{"parameterUnit":"kt","parameterCategory":2,"dx":1,"dy":1,"la1":30.253999710083008,"la2":30.299108505249023,"lo1":-89.0895004272461,"lo2":-89.04439544677734,"nx":28,"ny":28,"refTime":"2022-09-17T21:00:00:Z","depth":0,"parameterNumber":1,"parameterNumberName":"U-component_of_WINDS"},"data":[-2.4978,-2.5004,-2.5016,-2.5051,-2.5067,-2.5092,-2.5104,-2.5121,-2.5138,-2.5167,-2.5186,-2.5199,-2.5218,-2.5242,-2.5261,-2.5266,-2.5273,-2.5274,-2.528,-2.5268,-2.5267,-2.5266,-2.5262,-2.5276,-2.5276,-2.5291,-2.5291,-2.5291,-2.4967,-2.4984,-2.5006,-2.5036,-2.5054,-2.5061,-2.5084,-2.5098,-2.512,-2.514,-2.5159,-2.5186,-2.5207,-2.5226,-2.5249,-2.5259,-2.5263,-2.5264,-2.5263,-2.5266,-2.5254,-2.5249,-2.5261,-2.5261,-2.5261,-2.5261,-2.5261,-2.5261,-2.495,-2.4966,-2.4991,-2.5015,-2.5033,-2.5052,-2.5068,-2.5085,-2.5106,-2.5132,-2.5141,-2.5165,-2.5186,-2.5218,-2.5231,-2.5249,-2.5249,-2.5254,-2.5255,-2.5256,-2.5255,-2.5232,-2.5253,-2.5253,-2.5253,-2.5253,-2.5253,0,-2.4942,-2.4951,-2.4974,-2.5,-2.5018,-2.5039,-2.5059,-2.5069,-2.5091,-2.5107,-2.513,-2.5146,-2.5175,-2.5197,-2.522,-2.5233,-2.524,-2.5242,-2.5245,-2.5241,-2.5235,-2.5238,-2.5218,-2.5241,-2.5241,-2.5241,-2.5241,-2.5241,-2.4926,-2.4943,-2.4976,-2.4989,-2.5004,-2.5026,-2.5041,-2.506,-2.5075,-2.5102,-2.5113,-2.5136,-2.5156,-2.519,-2.5207,-2.5228,-2.5232,-2.524,-2.5235,-2.5231,-2.5232,-2.5231,-2.5232,-2.524,-2.524,-2.524,-2.524,0,-2.4916,-2.4937,-2.4966,-2.4996,-2.5004,-2.502,-2.5045,-2.506,-2.5075,-2.5097,-2.5104,-2.5126,-2.5148,-2.5164,-2.5192,-2.52,-2.5223,-2.5226,-2.5216,-2.5218,-2.5226,-2.5225,-2.5251,-2.5255,-2.5241,-2.5241,-2.5241,0,-2.491,-2.4931,-2.496,-2.4977,-2.5,-2.5019,-2.5041,-2.5056,-2.5076,-2.5094,-2.5105,-2.5122,-2.5141,-2.5159,-2.517,-2.5192,-2.5197,-2.5204,-2.5207,-2.5204,-2.5203,-2.5211,-2.521,-2.5213,-2.5213,-2.5213,-2.5213,0,-2.4892,-2.4933,-2.4959,-2.4972,-2.5006,-2.5017,-2.5032,-2.5054,-2.5069,-2.509,-2.5099,-2.5121,-2.5134,-2.515,-2.5165,-2.5162,-2.5193,-2.519,-2.52,-2.5199,-2.5206,-2.5205,-2.5224,-2.5213,-2.5213,-2.5213,-2.5213,0,-2.4891,-2.4915,-2.495,-2.4979,-2.4989,-2.5006,-2.5031,-2.5049,-2.5072,-2.5081,-2.5097,-2.5107,-2.5129,-2.5125,-2.5154,-2.5145,-2.5156,-2.5165,-2.5166,-2.5169,-2.5165,-2.5173,-2.519,-2.5192,-2.5171,-2.5171,-2.517,0,-2.4865,-2.4907,-2.4924,-2.4957,-2.4978,-2.4992,-2.501,-2.503,-2.5045,-2.5063,-2.5078,-2.5099,-2.5101,-2.5109,-2.5121,-2.5137,-2.5149,-2.5136,-2.5161,-2.5161,-2.5155,-2.517,-2.5169,-2.5184,-2.5166,-2.5167,-2.5167,0,-2.4847,-2.4891,-2.4896,-2.4911,-2.4942,-2.496,-2.4982,-2.5008,-2.502,-2.5041,-2.5059,-2.5089,-2.5091,-2.5106,-2.5116,-2.5128,-2.5141,-2.5128,-2.5129,-2.513,-2.5166,-2.5164,-2.5167,-2.5145,-2.5146,-2.5146,-2.5164,0,-2.484,-2.4864,-2.4878,-2.4912,-2.4929,-2.495,-2.4971,-2.4986,-2.4995,-2.501,-2.5036,-2.5057,-2.5082,-2.5089,-2.5098,-2.512,-2.5119,-2.5121,-2.5119,-2.5129,-2.5135,-2.5137,-2.5108,-2.5108,-2.5108,-2.5108,0,0,-2.481,-2.4845,-2.4864,-2.4887,-2.4903,-2.4917,-2.4938,-2.4954,-2.4987,-2.4996,-2.4996,-2.5041,-2.5058,-2.5087,-2.5092,-2.5102,-2.5107,-2.5103,-2.5124,-2.5125,-2.5127,-2.5133,-2.5136,-2.5108,-2.5108,-2.5108,-2.5108,0,-2.4812,-2.4833,-2.4855,-2.4873,-2.4901,-2.4916,-2.4921,-2.4951,-2.4962,-2.4988,-2.4998,-2.5016,-2.5052,-2.5068,-2.5081,-2.51,-2.5106,-2.5106,-2.511,-2.5124,-2.5125,-2.5127,-2.5133,-2.5135,-2.5108,-2.5108,-2.5108,0,-2.4799,-2.4822,-2.4835,-2.4873,-2.4891,-2.4913,-2.4917,-2.494,-2.4955,-2.4968,-2.4994,-2.5008,-2.5032,-2.5057,-2.507,-2.5069,-2.5104,-2.5096,-2.5097,-2.5098,-2.5112,-2.5114,-2.5116,-2.5093,-2.5093,-2.5093,0,0,-2.4798,-2.4821,-2.4851,-2.4875,-2.4886,-2.4909,-2.4923,-2.4934,-2.4956,-2.4965,-2.4984,-2.5004,-2.5025,-2.5038,-2.5059,-2.5084,-2.509,-2.5094,-2.5095,-2.5095,-2.5097,-2.5111,-2.5113,-2.5092,-2.5092,-2.5092,0,0,-2.4797,-2.4834,-2.4841,-2.4871,-2.4893,-2.4923,-2.4936,-2.4944,-2.4965,-2.4965,-2.4983,-2.4989,-2.5014,-2.5027,-2.5018,-2.5058,-2.5056,-2.5058,-2.5049,-2.505,-2.5051,-2.5047,-2.5024,0,0,0,0,0,-2.4811,-2.483,-2.4835,-2.4844,-2.4891,-2.4921,-2.4927,-2.4943,-2.4942,-2.4951,-2.4968,-2.4974,-2.5026,-2.5019,-2.5026,-2.5035,-2.5086,-2.5087,-2.5088,-2.5082,-2.5083,-2.5084,0,0,0,0,0,0,-2.4814,-2.4824,-2.4835,-2.4866,-2.4877,-2.492,-2.4921,-2.4926,-2.4941,-2.4942,-2.497,-2.4975,-2.4988,-2.5016,-2.5022,-2.5031,-2.5022,-2.5086,-2.5087,-2.5088,-2.5082,-2.5083,-2.5084,0,0,0,0,0,-2.4817,-2.4825,-2.4897,-2.4866,-2.4875,-2.4902,-2.492,-2.4925,-2.4936,-2.4963,-2.4967,-2.4948,-2.4988,-2.4994,-2.502,-2.5028,-2.5018,-2.502,-2.5087,-2.5088,-2.5088,-2.5083,0,0,0,0,0,0,-2.4819,-2.4829,-2.4899,-2.4902,-2.4861,-2.49,-2.4907,-2.4923,-2.4956,-2.4961,-2.4941,-2.4941,-2.4988,-2.4993,-2.4997,-2.5026,-2.5015,-2.5017,-2.5018,-2.5088,-2.5088,-2.5089,0,0,0,0,0,0,-2.4824,-2.4831,-2.4901,-2.4893,-2.4896,-2.4898,-2.4904,-2.4928,-2.4956,-2.4933,-2.4934,-2.4941,-2.498,-2.4992,-2.4996,-2.5033,-2.5012,-2.5014,-2.5016,-2.5017,-2.5088,-2.5089,0,0,0,0,0,0,-2.4828,-2.4834,-2.4892,-2.4894,-2.4897,-2.4936,-2.4919,-2.4966,-2.4952,-2.4931,-2.4951,-2.495,-2.4979,-2.4983,-2.4994,-2.503,-2.5032,-2.5012,-2.5014,-2.5015,-2.5015,0,0,0,0,0,0,0,-2.483,-2.4786,-2.4879,-2.4895,-2.4897,-2.4934,-2.4935,-2.4936,-2.4952,-2.4951,-2.4951,-2.4951,-2.5,-2.5002,-2.5005,-2.5027,0,0,-2.5012,-2.5013,0,0,0,0,0,0,0,0,-2.4784,-2.4785,-2.4879,-2.488,-2.4881,-2.4934,-2.4935,-2.4935,-2.4952,-2.4951,-2.4951,-2.4951,-2.5001,-2.5003,-2.5005,0,0,0,0,0,0,0,0,0,0,0,0,0,0,0,-2.4879,-2.488,0,-2.4934,-2.4935,-2.4935,-2.4952,-2.4951,-2.4951,-2.4951,-2.5001,-2.5003,-2.5004,0,0,0,0,0,0,0,0,0,0,0,0,0,0,0,0,0,0,0,0,0,0,0,0,0,0,0,0,0,0,0,0,0,0,0,0,0,0,0,0,0,0,0,0,0,0,0,0,0,0,0,0,0,0,0,0,0,0,0,0,0,0,0,0,0,0,0,0,0]}],[{"header":{"parameterUnit":"kt","parameterCategory":2,"dx":1,"dy":1,"la1":30.253999710083008,"la2":30.299108505249023,"lo1":-89.0895004272461,"lo2":-89.04439544677734,"nx":28,"ny":28,"refTime":"2022-09-17T21:00:00:Z","depth":0,"parameterNumber":2,"parameterNumberName":"V-component_of_WINDS"},"data":[-4.7376,-4.7394,-4.7437,-4.748,-4.7526,-4.7563,-4.7591,-4.7632,-4.7676,-4.7728,-4.7766,-4.7813,-4.7876,-4.7935,-4.798,-4.8001,-4.8018,-4.7995,-4.8023,-4.8085,-4.8096,-4.8107,-4.8105,-4.7997,-4.7997,-4.7953,-4.7952,-4.7952,-4.7426,-4.7471,-4.7505,-4.7566,-4.7597,-4.7647,-4.7701,-4.7724,-4.7756,-4.781,-4.7849,-4.7899,-4.7944,-4.8016,-4.8068,-4.8081,-4.8108,-4.8092,-4.8092,-4.8102,-4.817,-4.8167,-4.807,-4.8071,-4.8071,-4.8071,-4.8071,-4.8071,-4.7528,-4.7537,-4.7598,-4.7635,-4.7678,-4.772,-4.7737,-4.7793,-4.7827,-4.7883,-4.7928,-4.7966,-4.8029,-4.8112,-4.815,-4.8184,-4.8208,-4.8205,-4.8205,-4.8203,-4.8196,-4.826,-4.8194,-4.8195,-4.8195,-4.8196,-4.8196,0,-4.7616,-4.7651,-4.7685,-4.7732,-4.7762,-4.7802,-4.7847,-4.7859,-4.7948,-4.7973,-4.8013,-4.8044,-4.8106,-4.815,-4.8207,-4.8248,-4.8302,-4.8311,-4.831,-4.8289,-4.8265,-4.828,-4.839,-4.8312,-4.8313,-4.8314,-4.8315,-4.8315,-4.7724,-4.7727,-4.7811,-4.7829,-4.7863,-4.7891,-4.7918,-4.7995,-4.8019,-4.8087,-4.8092,-4.8136,-4.8175,-4.8234,-4.8299,-4.8346,-4.8372,-4.8338,-4.8379,-4.8361,-4.8374,-4.8373,-4.8376,-4.8328,-4.8326,-4.8325,-4.8324,0,-4.7781,-4.7849,-4.7867,-4.7949,-4.797,-4.7971,-4.8042,-4.8054,-4.8106,-4.8131,-4.8141,-4.8222,-4.826,-4.8331,-4.8389,-4.8425,-4.8434,-4.8458,-4.8415,-4.8424,-4.8402,-4.8404,-4.8314,-4.8308,-4.8419,-4.8418,-4.8417,0,-4.79,-4.79,-4.8002,-4.8008,-4.8014,-4.809,-4.8094,-4.8138,-4.819,-4.821,-4.8281,-4.8298,-4.8385,-4.8414,-4.8467,-4.8487,-4.8497,-4.8526,-4.854,-4.852,-4.8516,-4.8534,-4.8539,-4.8569,-4.8569,-4.857,-4.857,0,-4.7982,-4.8035,-4.8047,-4.807,-4.8156,-4.8161,-4.8197,-4.8255,-4.8278,-4.8321,-4.8339,-4.8383,-4.8407,-4.8442,-4.8509,-4.8534,-4.8533,-4.8582,-4.8564,-4.8562,-4.8558,-4.8557,-4.8462,-4.857,-4.857,-4.8571,-4.8571,0,-4.8087,-4.8126,-4.8131,-4.8206,-4.8216,-4.8223,-4.8272,-4.8294,-4.8349,-4.8383,-4.8417,-4.8471,-4.8491,-4.8536,-4.8566,-4.858,-4.8602,-4.8631,-4.8631,-4.8636,-4.8684,-4.8622,-4.8522,-4.8515,-4.8644,-4.8645,-4.8645,0,-4.8164,-4.8186,-4.825,-4.8254,-4.8274,-4.8352,-4.8362,-4.8407,-4.8452,-4.8478,-4.8528,-4.8555,-4.8602,-4.8621,-4.8626,-4.8679,-4.866,-4.8684,-4.8723,-4.8724,-4.8708,-4.8617,-4.8584,-4.8536,-4.8654,-4.8653,-4.8652,0,-4.8232,-4.8332,-4.8328,-4.8358,-4.8428,-4.8443,-4.8454,-4.8497,-4.8511,-4.8552,-4.8565,-4.8604,-4.8643,-4.867,-4.8718,-4.872,-4.8676,-4.876,-4.8763,-4.8744,-4.8663,-4.8633,-4.8624,-4.8708,-4.8707,-4.8707,-4.8659,0,-4.8379,-4.8397,-4.8387,-4.8446,-4.8469,-4.8473,-4.8544,-4.856,-4.8604,-4.865,-4.8668,-4.8721,-4.8763,-4.877,-4.8812,-4.8793,-4.8807,-4.8846,-4.8893,-4.8832,-4.8819,-4.8813,-4.8908,-4.891,-4.8912,-4.8913,0,0,-4.8437,-4.8463,-4.853,-4.8541,-4.8565,-4.8643,-4.8642,-4.8674,-4.8735,-4.875,-4.8778,-4.8838,-4.8878,-4.8893,-4.8879,-4.8895,-4.89,-4.8916,-4.886,-4.8854,-4.8849,-4.8833,-4.8825,-4.8916,-4.8916,-4.8917,-4.8917,0,-4.8505,-4.8542,-4.8538,-4.8574,-4.8629,-4.8677,-4.8676,-4.8744,-4.8773,-4.8788,-4.8853,-4.8872,-4.8914,-4.8951,-4.8975,-4.8917,-4.8964,-4.8924,-4.887,-4.8873,-4.8865,-4.8858,-4.884,-4.8832,-4.8921,-4.8921,-4.892,0,-4.8585,-4.8634,-4.8639,-4.8692,-4.8728,-4.8745,-4.8813,-4.8826,-4.884,-4.8923,-4.8937,-4.8975,-4.9027,-4.903,-4.9033,-4.9058,-4.9019,-4.9042,-4.9034,-4.9036,-4.9042,-4.9032,-4.9023,-4.914,-4.9141,-4.9141,0,0,-4.8634,-4.8649,-4.8724,-4.8712,-4.873,-4.88,-4.8815,-4.8859,-4.8903,-4.8921,-4.897,-4.9012,-4.9039,-4.9054,-4.9083,-4.9074,-4.9093,-4.9066,-4.9055,-4.9047,-4.9043,-4.9047,-4.9037,-4.9143,-4.9143,-4.9143,0,0,-4.8657,-4.8743,-4.8779,-4.8773,-4.8813,-4.8886,-4.8876,-4.8922,-4.8953,-4.896,-4.9035,-4.905,-4.9053,-4.9086,-4.9103,-4.9101,-4.9146,-4.9144,-4.9078,-4.9066,-4.9056,-4.9048,-4.9178,0,0,0,0,0,-4.8761,-4.8733,-4.8764,-4.8773,-4.884,-4.8869,-4.8878,-4.8939,-4.8971,-4.8963,-4.9011,-4.9059,-4.9112,-4.9128,-4.9137,-4.9117,-4.9166,-4.9162,-4.9158,-4.9072,-4.9059,-4.9048,0,0,0,0,0,0,-4.8765,-4.8776,-4.8765,-4.8835,-4.8851,-4.887,-4.8938,-4.8954,-4.8973,-4.8982,-4.9048,-4.9061,-4.9114,-4.9128,-4.9135,-4.9115,-4.9176,-4.9165,-4.9161,-4.9158,-4.9068,-4.9057,-4.9047,0,0,0,0,0,-4.8769,-4.8777,-4.8867,-4.8837,-4.885,-4.8925,-4.894,-4.8954,-4.8969,-4.9043,-4.9057,-4.9014,-4.9112,-4.9121,-4.9132,-4.911,-4.9172,-4.9174,-4.9162,-4.916,-4.9157,-4.9062,0,0,0,0,0,0,-4.8771,-4.8791,-4.8871,-4.8878,-4.8851,-4.8925,-4.8939,-4.8952,-4.903,-4.9044,-4.9012,-4.9018,-4.911,-4.9118,-4.9125,-4.9105,-4.9169,-4.9171,-4.9172,-4.916,-4.9158,-4.9156,0,0,0,0,0,0,-4.8787,-4.8796,-4.8875,-4.8889,-4.8898,-4.8925,-4.8937,-4.8954,-4.903,-4.8995,-4.9003,-4.9014,-4.9099,-4.9115,-4.9121,-4.9145,-4.9166,-4.9168,-4.917,-4.9171,-4.9159,-4.9157,0,0,0,0,0,0,-4.8792,-4.88,-4.8888,-4.8894,-4.8902,-4.8979,-4.8941,-4.9006,-4.9042,-4.899,-4.9047,-4.9049,-4.9095,-4.9102,-4.9117,-4.9139,-4.9143,-4.9166,-4.9167,-4.9169,-4.9169,0,0,0,0,0,0,0,-4.8796,-4.8728,-4.8833,-4.8899,-4.8906,-4.8938,-4.8939,-4.8941,-4.9042,-4.9044,-4.9046,-4.9048,-4.9153,-4.9156,-4.9158,-4.9134,0,0,-4.9166,-4.9167,0,0,0,0,0,0,0,0,-4.8726,-4.8727,-4.8833,-4.8834,-4.8835,-4.8938,-4.8939,-4.8941,-4.9043,-4.9044,-4.9046,-4.9047,-4.9154,-4.9156,-4.9158,0,0,0,0,0,0,0,0,0,0,0,0,0,0,0,-4.8833,-4.8834,0,-4.8938,-4.8939,-4.894,-4.9043,-4.9044,-4.9045,-4.9047,-4.9155,-4.9156,-4.9158,0,0,0,0,0,0,0,0,0,0,0,0,0,0,0,0,0,0,0,0,0,0,0,0,0,0,0,0,0,0,0,0,0,0,0,0,0,0,0,0,0,0,0,0,0,0,0,0,0,0,0,0,0,0,0,0,0,0,0,0,0,0,0,0,0,0,0,0,0]}]]]